User: anonymous   Login
Location: Brno
(49.2000°N, 16.6330°E)
Time: 13:44:15
(UTC+02:00)
Language:

BREEZE M DEB (TANK) - Orbit

View from above orbital plane
View from above orbital plane
View from above satellite
View from above satellite

Ground track
Ground track

The orbit data is extracted from the following two-line orbital elements,

1 28359U 04022B   16272.50499602 +.00004235 +00000-0 +52472-3 0  9995
2 28359 049.5260 308.2481 4676507 005.4521 358.3185 06.18685519269080
Epoch (UTC): 28 September 2016 12:07:11
Eccentricity: 0.4676507
inclination: 49.5260°
perigee height: 294 km
apogee height: 12017 km
right ascension of ascending node: 308.2481°
argument of perigee: 5.4521°
revolutions per day: 6.18685519
mean anomaly at epoch: 358.3185°
orbit number at epoch: 26908

The dashed part of the orbit path shows where the satellite is in the earth's shadow,  

DLR